Location: *
(51.2167°N, 10.0667°E)
Time: 23:14:21
(UTC+00:00)

USA 215 - Pass Details

Date: 12 December 2019
Orbit: 1099 x 1109 km, 123.0° (Epoch: 03 January)

Event Time Altitude Azimuth Distance (km) Brightness Sun altitude
Exits shadow 17:36:17 34° 55° (NE) 1,742 3.8 -21.3°
Maximum altitude 17:39:24 76° 337° (NNW) 1,139 3.3 -21.8°
Drops below altitude 10° 17:45:56 10° 253° (WSW) 2,963 6.6 -22.8°
Sets 17:48:25 0° 252° (WSW) 3,921 7.6 -23.2°
